| time (UTC) | temp F | wind direction | speed knots | gust knots | rain 1hr in | rain 24hr in | rain mn in | humidity % | barometer mb |
| 20260510193041 | 70 | 292 | 5.2 | 10.4 | 0.00 | 0.00 | 0.00 | 41 | 1013.8 |
| 20260510191540 | 70 | 289 | 6.1 | 8.7 | 0.00 | 0.00 | 0.00 | 42 | 1013.8 |
| 20260510190043 | 69 | 295 | 4.3 | 7.0 | 0.00 | 0.00 | 0.00 | 43 | 1013.6 |
| 20260510184540 | 69 | 276 | 2.6 | 7.0 | 0.00 | 0.00 | 0.00 | 43 | 1013.4 |
| 20260510183038 | 68 | 222 | 0.9 | 5.2 | 0.00 | 0.00 | 0.00 | 44 | 1013.3 |
| 20260510181534 | 68 | 298 | 0.9 | 2.6 | 0.00 | 0.00 | 0.00 | 46 | 1013.6 |
| 20260510180034 | 67 | 321 | 0.0 | 4.3 | 0.00 | 0.00 | 0.00 | 47 | 1013.4 |
| 20260510174529 | 66 | 268 | 4.3 | 6.1 | 0.00 | 0.00 | 0.00 | 48 | 1013.6 |
| 20260510173027 | 65 | 274 | 5.2 | 8.7 | 0.00 | 0.00 | 0.00 | 50 | 1013.9 |
| 20260510171528 | 65 | 274 | 2.6 | 5.2 | 0.00 | 0.00 | 0.00 | 48 | 1013.5 |
| 20260510170023 | 64 | 295 | 1.7 | 3.5 | 0.00 | 0.00 | 0.00 | 49 | 1013.5 |
| 20260510164520 | 63 | 310 | 1.7 | 5.2 | 0.00 | 0.00 | 0.00 | 53 | 1013.8 |
| 20260510163019 | 62 | 310 | 3.5 | 6.1 | 0.00 | 0.00 | 0.00 | 55 | 1014.0 |
| 20260510161518 | 62 | 290 | 6.1 | 11.3 | 0.00 | 0.00 | 0.00 | 52 | 1013.8 |
| 20260510160017 | 63 | 282 | 4.3 | 7.8 | 0.00 | 0.00 | 0.00 | 51 | 1014.0 |
| 20260510154517 | 63 | 309 | 0.0 | 4.3 | 0.00 | 0.00 | 0.00 | 53 | 1013.9 |
| 20260510153011 | 60 | 20 | 1.7 | 3.5 | 0.00 | 0.00 | 0.00 | 56 | 1014.3 |
| 20260510151508 | 59 | 321 | 1.7 | 2.6 | 0.00 | 0.00 | 0.00 | 61 | 1014.5 |
| 20260510150003 | 56 | 47 | 0.9 | 3.5 | 0.00 | 0.00 | 0.00 | 75 | 1014.6 |
| 20260510144502 | 55 | 298 | 1.7 | 2.6 | 0.00 | 0.00 | 0.00 | 76 | 1014.5 |
| 20260510143110 | 55 | 139 | 0.0 | 0.9 | 0.00 | 0.00 | 0.00 | 77 | 1014.2 |
| 20260510141603 | 52 | 139 | 0.0 | 1.7 | 0.00 | 0.00 | 0.00 | 77 | 1014.3 |
| 20260510140052 | 50 | 139 | 0.0 | 0.9 | 0.00 | 0.00 | 0.00 | 80 | 1014.2 |
| 20260510134604 | 49 | 139 | 0.9 | 1.7 | 0.00 | 0.00 | 0.00 | 79 | 1013.9 |
| 20260510133050 | 47 | 139 | 0.0 | 2.6 | 0.00 | 0.00 | 0.00 | 83 | 1013.8 |
| 20260510131550 | 46 | 116 | 0.0 | 1.7 | 0.00 | 0.00 | 0.00 | 81 | 1013.4 |
| 20260510130049 | 45 | 116 | 0.0 | 0.9 | 0.00 | 0.00 | 0.00 | 81 | 1013.6 |
| 20260510124554 | 45 | 116 | 0.0 | 1.7 | 0.00 | 0.00 | 0.00 | 86 | 1013.5 |
| 20260510123045 | 44 | 138 | 0.9 | 1.7 | 0.00 | 0.00 | 0.00 | 85 | 1013.5 |
| 20260510121543 | 44 | 138 | 1.7 | 1.7 | 0.00 | 0.00 | 0.00 | 85 | 1013.5 |
| 20260510120042 | 45 | 138 | 0.0 | 1.7 | 0.00 | 0.00 | 0.00 | 85 | 1013.4 |
| 20260510114541 | 45 | 138 | 0.9 | 1.7 | 0.00 | 0.00 | 0.00 | 85 | 1013.4 |
| 20260510113039 | 45 | 138 | 0.0 | 0.0 | 0.00 | 0.00 | 0.00 | 85 | 1013.4 |
| 20260510111552 | 45 | 138 | 0.0 | 0.9 | 0.00 | 0.00 | 0.00 | 86 | 1013.4 |
| 20260510110038 | 46 | 138 | 0.0 | 0.0 | 0.00 | 0.00 | 0.00 | 80 | 1013.5 |
| 20260510104545 | 48 | 138 | 0.0 | 0.9 | 0.00 | 0.00 | 0.00 | 81 | 1013.4 |
| 20260510103037 | 46 | 138 | 0.9 | 1.7 | 0.00 | 0.00 | 0.00 | 84 | 1013.6 |
| 20260510101534 | 45 | 138 | 1.7 | 1.7 | 0.00 | 0.00 | 0.00 | 86 | 1013.7 |
| 20260510100030 | 44 | 138 | 1.7 | 1.7 | 0.00 | 0.00 | 0.00 | 86 | 1013.9 |
| 20260510094531 | 45 | 138 | 0.0 | 0.9 | 0.00 | 0.00 | 0.00 | 85 | 1013.9 |
| 20260510093025 | 45 | 138 | 0.0 | 2.6 | 0.00 | 0.00 | 0.00 | 85 | 1013.9 |
| 20260510091526 | 45 | 123 | 0.0 | 1.7 | 0.00 | 0.00 | 0.00 | 84 | 1013.9 |
| 20260510090020 | 46 | 123 | 0.0 | 1.7 | 0.00 | 0.00 | 0.00 | 83 | 1014.1 |
| 20260510084517 | 47 | 123 | 0.0 | 1.7 | 0.00 | 0.00 | 0.00 | 80 | 1014.3 |
| 20260510083015 | 47 | 123 | 1.7 | 0.0 | 0.00 | 0.00 | 0.00 | 80 | 1014.3 |
| 20260510081513 | 47 | 123 | 0.9 | 1.7 | 0.00 | 0.00 | 0.00 | 78 | 1014.4 |
| 20260510080011 | 48 | 123 | 0.0 | 1.7 | 0.00 | 0.00 | 0.00 | 80 | 1014.4 |
| 20260510074508 | 50 | 123 | 0.0 | 2.6 | 0.00 | 0.00 | 0.00 | 78 | 1014.4 |
| 20260510073006 | 50 | 137 | 0.0 | 0.9 | 0.00 | 0.00 | 0.00 | 77 | 1014.5 |
| 20260510071502 | 51 | 137 | 0.0 | 1.7 | 0.00 | 0.00 | 0.00 | 75 | 1014.3 |
| 20260510070000 | 51 | 137 | 0.0 | 0.9 | 0.00 | 0.00 | 0.00 | 77 | 1014.3 |
| 20260510064601 | 50 | 137 | 0.0 | 1.7 | 0.00 | 0.00 | 0.00 | 76 | 1014.5 |
| 20260510063106 | 51 | 137 | 0.0 | 0.9 | 0.00 | 0.00 | 0.00 | 77 | 1014.4 |
| 20260510061559 | 50 | 137 | 0.9 | 1.7 | 0.00 | 0.00 | 0.00 | 75 | 1014.4 |
| 20260510060101 | 51 | 137 | 0.0 | 0.0 | 0.00 | 0.00 | 0.00 | 74 | 1014.4 |
| 20260510054559 | 53 | 137 | 0.0 | 0.9 | 0.00 | 0.00 | 0.00 | 69 | 1014.4 |
| 20260510053059 | 52 | 137 | 0.0 | 0.9 | 0.00 | 0.00 | 0.00 | 71 | 1014.7 |
| 20260510051642 | 54 | 137 | 0.0 | 2.6 | 0.00 | 0.00 | 0.00 | 69 | 1014.8 |
| 20260510050054 | 52 | 213 | 2.6 | 3.5 | 0.00 | 0.00 | 0.00 | 74 | 1015.0 |
| 20260510044554 | 56 | 139 | 0.9 | 2.6 | 0.00 | 0.00 | 0.00 | 66 | 1014.8 |
| 20260510043139 | 56 | 193 | 0.0 | 0.9 | 0.00 | 0.00 | 0.00 | 68 | 1015.0 |
| 20260510041554 | 59 | 193 | 0.0 | 1.7 | 0.00 | 0.00 | 0.00 | 63 | 1015.1 |
| 20260510040051 | 59 | 194 | 0.0 | 1.7 | 0.00 | 0.00 | 0.00 | 59 | 1015.0 |
| 20260510034554 | 62 | 110 | 0.0 | 2.6 | 0.00 | 0.00 | 0.00 | 55 | 1014.9 |
| 20260510033056 | 65 | 40 | 3.5 | 6.1 | 0.00 | 0.00 | 0.00 | 47 | 1014.9 |
| 20260510031620 | 66 | 72 | 2.6 | 6.1 | 0.00 | 0.00 | 0.00 | 46 | 1014.8 |
| 20260510030052 | 66 | 64 | 3.5 | 6.1 | 0.00 | 0.00 | 0.00 | 46 | 1014.8 |
| 20260510024547 | 67 | 84 | 3.5 | 5.2 | 0.00 | 0.00 | 0.00 | 49 | 1014.8 |
| 20260510023054 | 68 | 51 | 2.6 | 5.2 | 0.00 | 0.00 | 0.00 | 48 | 1014.8 |
| 20260510021546 | 70 | 51 | 3.5 | 7.0 | 0.00 | 0.00 | 0.00 | 44 | 1015.0 |
| 20260510020048 | 71 | 45 | 4.3 | 7.8 | 0.00 | 0.00 | 0.00 | 41 | 1015.1 |
| 20260510014544 | 72 | 49 | 5.2 | 7.8 | 0.00 | 0.00 | 0.00 | 41 | 1015.1 |
| 20260510013041 | 72 | 65 | 5.2 | 8.7 | 0.00 | 0.00 | 0.00 | 39 | 1015.2 |
| 20260510011553 | 73 | 41 | 6.1 | 10.4 | 0.00 | 0.00 | 0.00 | 38 | 1015.4 |
| 20260510010044 | 73 | 37 | 7.8 | 10.4 | 0.00 | 0.00 | 0.00 | 38 | 1015.5 |
| 20260510004536 | 74 | 11 | 6.1 | 11.3 | 0.00 | 0.00 | 0.00 | 33 | 1015.5 |
| 20260510003035 | 75 | 349 | 4.3 | 7.0 | 0.00 | 0.00 | 0.00 | 27 | 1015.6 |
| 20260510001532 | 74 | 331 | 2.6 | 7.8 | 0.00 | 0.00 | 0.00 | 27 | 1015.7 |
| 20260510000029 | 74 | 327 | 1.7 | 7.0 | 0.00 | 0.00 | 0.00 | 30 | 1015.7 |
| 20260509234527 | 74 | 14 | 5.2 | 8.7 | 0.00 | 0.00 | 0.00 | 29 | 1015.9 |
| 20260509233028 | 74 | 326 | 5.2 | 8.7 | 0.00 | 0.00 | 0.00 | 33 | 1016.1 |
| 20260509231522 | 74 | 311 | 2.6 | 7.8 | 0.00 | 0.00 | 0.00 | 36 | 1016.3 |
| 20260509230021 | 74 | 16 | 4.3 | 9.6 | 0.00 | 0.00 | 0.00 | 32 | 1016.4 |
| 20260509224520 | 74 | 29 | 1.7 | 7.0 | 0.00 | 0.00 | 0.00 | 35 | 1016.5 |
| 20260509223017 | 74 | 333 | 2.6 | 9.6 | 0.00 | 0.00 | 0.00 | 33 | 1016.6 |
| 20260509221517 | 73 | 271 | 2.6 | 10.4 | 0.00 | 0.00 | 0.00 | 33 | 1016.7 |
| 20260509220014 | 73 | 25 | 5.2 | 10.4 | 0.00 | 0.00 | 0.00 | 33 | 1016.8 |
| 20260509214512 | 73 | 338 | 4.3 | 8.7 | 0.00 | 0.00 | 0.00 | 32 | 1017.0 |
| 20260509213011 | 72 | 349 | 5.2 | 8.7 | 0.00 | 0.00 | 0.00 | 34 | 1017.2 |
| 20260509211506 | 71 | 340 | 5.2 | 11.3 | 0.00 | 0.00 | 0.00 | 32 | 1017.4 |
| 20260509210004 | 71 | 269 | 1.7 | 7.8 | 0.00 | 0.00 | 0.00 | 34 | 1017.6 |
| 20260509204502 | 71 | 301 | 3.5 | 7.0 | 0.00 | 0.00 | 0.00 | 36 | 1017.7 |
| 20260509203101 | 70 | 349 | 2.6 | 7.0 | 0.00 | 0.00 | 0.00 | 37 | 1017.8 |
| 20260509201557 | 70 | 9 | 5.2 | 7.8 | 0.00 | 0.00 | 0.00 | 40 | 1017.9 |
| 20260509200056 | 69 | 5 | 4.3 | 9.6 | 0.00 | 0.00 | 0.00 | 41 | 1018.1 |
| 20260509194559 | 69 | 327 | 3.5 | 6.1 | 0.00 | 0.00 | 0.00 | 43 | 1018.2 |